Showing default

NPSAT1, 44340

Orbit data source: Space-Track

NPSAT1, 44340 is a payload satellite owned by USN PGS (US) in LEO that was launched on Tue, 25 Jun 2019 UTC via an FALCON HEAVY launch vehicle from the Air Force Eastern Test Range (AFETR). Payload-class satellites include a variety of spacecraft equipped with specific instruments for various scientific and technological missions. These include communications satellites like Starlink; space stations such as the ISS; scientific satellites like the Hubble; Earth observation satellites from companies like Planet Labs, Umbra, and HawkEye 360; GPS; miniature CubeSats for education and research; and military/defense satellites.

Not visible in the next 10 days
Identifier
44340, 2019-036B
Orbit
LEO
Country
Flag of USUS
Related business
Manufacturer
USN PGS
Mission
Operational Defense Tech/Sci
Bus & Motor
NPSAT, Unknown motor
Mass
83 kg wet, 83 kg dry
Launch date (UTC)
2019-06-25 (6 years ago)
Launch vehicle
FALCON HEAVY
Launch site
Air Force Eastern Test Range (AFETR)
Object type
Payload
Rocket body
Debris
Shape & HBR
Cyl + 2 Ant, 0.4 m
Radar Cross Section
0.314 m², Medium (>0.1 m² and < 1m²)

Expand to show TLE details & history
Last TLE update: 10 hours ago

TLE from 10 hours ago
0 NPSAT1
1 44340U 19036B   25343.29145558  .00010349  00000-0  15712-2 0  9995
2 44340  24.0004  12.3860 0007603 223.5858 136.4037 14.72093570344458
Epoch: 2025-12-09T06:59Z
TLE epoch observation values (Epoch: 2025-12-09T06:59:41.762Z)
Latitude
Longitude
-170.81625°
Altitude
656.178 km
Speed
7.53 km/s
True Right ascension
00h 49m 32s
True Declination
0° 00' 00"
Sunlit
Object was in daylight at epoch
Visualization orbit readout
Latitude
Unknown
Longitude
Unknown
Altitude
Unknown
Speed
Unknown
Apparent Right ascension
Unknown
Apparent Declination
Unknown
Sunlit
N/A
Visualization observer readout
Local Sidereal Time
15:22:47
Azimuth
Unknown
Elevation
Unknown
Doppler factor
Unknown
Orbital elements
Apogee altitude
664.458 km
Perigee altitude
653.757 km
Semi-major axis
7,037.245 km
Eccentricity
0.00076
Inclination
24.0004°
RAAN
12.386°
Arg. of periapsis
223.5858°
True anomaly
136.46374°
Mean anomaly
136.4037°
Eccentric anomaly
136.43372°
Mean motion
3.67654 °/min
Orbital period
97.92 mins
BSTAR
0.0015712
Loading maneuver chart data...
Computing Atmospheric mass density...

Documentation

Showing up to 5 results
|